Regional Weather Roundup
Issued by NWS

Home | Current Version | Previous Version | Text Only | Print | Product List | Glossary On
Versions: 1 2 3 4 5 6 7 8 9 10 11 12 13 14 15 16 17 18 19 20 21 22 23 24 25 26 27 28 29 30 31 32 33 34 35 36 37 38 39 40 41 42 43 44 45 46 47 48 49 50
000
ASUS43 KDMX 200006
RWRIA

WEATHER ROUNDUP FOR IOWA
NATIONAL WEATHER SERVICE DES MOINES IA
700 PM CDT THU APR 19 2018

NOTE: "FAIR" INDICATES FEW OR NO CLOUDS BELOW 12,000 FEET WITH NO
SIGNIFICANT WEATHER AND/OR OBSTRUCTIONS TO VISIBILITY.

* - THESE STATIONS ARE NOT NWS STATIONS...THUS NOT UNDER NWS
QUALITY CONTROL.  THEY ALSO DO NOT REPORT WEATHER SUCH
AS PRECIPITATION OR FOG.

IAZ001>003-012>014-020>022-031>034-043>046-200100-
   NORTHWEST IOWA

CITY           SKY/WX    TMP DP  RH WIND       PRES   REMARKS
CARROLL *      SUNNY     48  30  49 NE10      30.43S
CHEROKEE *     CLOUDY    37  25  61 E8        30.45F WCI  31
DENISON *      SUNNY     50  30  46 E9G15     30.43S
LE MARS *      SUNNY     41  27  56 E10G17    30.43F
ORANGE CITY *  CLOUDY    39  30  70 E7        30.43F WCI  34
SHELDON *      SUNNY     41  28  60 E6        30.43F
SIOUX CITY     CLOUDY    47  32  56 E13       30.40F
6HR MIN TEMP:  47; 6HR MAX TEMP:  54;

SPENCER        SUNNY     38  24  57 CALM      30.46S
6HR MIN TEMP:  37; 6HR MAX TEMP:  40;

STORM LAKE *   SUNNY     36  25  64 E10       30.44F WCI  28
$$

IAZ055>058-069>071-079>083-090>094-200100-
   SOUTHWEST IOWA

CITY           SKY/WX    TMP DP  RH WIND       PRES   REMARKS
ATLANTIC *     SUNNY     54  23  30 E8        30.39S
AUDUBON *      SUNNY     52  27  37 E7        30.42S
CLARINDA *     SUNNY     57  27  30 E7        30.40S
COUNCIL BLFS * SUNNY     55  28  35 E7        30.38S
CRESTON *      SUNNY     54  23  30 E8        30.41S
HARLAN  *      SUNNY     54  27  35 E6        30.42F
LAMONI         SUNNY     54  26  34 NE9       30.39S
6HR MIN TEMP:  50; 6HR MAX TEMP:  56;

RED OAK *      SUNNY     57  27  30 NE7       30.38F
SHENANDOAH *   SUNNY     57  27  30 SE9       30.38S
$$

IAZ047>049-059>061-072>074-084-200100-
   CENTRAL IOWA

CITY           SKY/WX    TMP DP  RH WIND       PRES   REMARKS
AMES           SUNNY     48  27  44 NE9       30.44S
6HR MIN TEMP:  46; 6HR MAX TEMP:  52;

ANKENY *       SUNNY     50  25  37 E7        30.45R
BOONE *        SUNNY     46  27  46 E7        30.44R
CHARITON *     CLEAR     52  27  37 NE6       30.41S
DES MOINES     MOSUNNY   52  25  35 NE7       30.43S
6HR MIN TEMP:  49; 6HR MAX TEMP:  54;

GRINNELL*      CLEAR     48  26  42 NE8       30.44S
KNOXVILLE *    CLEAR     52  23  32 NE7       30.41S
MARSHALLTOWN   CLEAR     47  28  47 NE8       30.44S
6HR MIN TEMP:  44; 6HR MAX TEMP:  49;

NEWTON *       CLEAR     48  25  40 NE8       30.43S
PELLA *        CLEAR     53  24  32 NE3       30.43F
PERRY *        FAIR      49  22  35 NE6       30.43S
$$

IAZ004>006-015-016-023>025-035-036-200100-
   NORTH CENTRAL IOWA

CITY           SKY/WX    TMP DP  RH WIND       PRES   REMARKS
ALGONA *       SUNNY     39  18  41 E5        30.47S
CLARION *      SUNNY     37  30  75 N5        30.46S WCI  34
ESTHERVILLE    SUNNY     35  25  66 CALM      30.46S
6HR MIN TEMP:  35; 6HR MAX TEMP:  38;

FORT DODGE *   SUNNY     41  25  53 NE6       30.46S
MASON CITY     SUNNY     38  25  59 CALM      30.47S
6HR MIN TEMP:  38; 6HR MAX TEMP:  43;

FOREST CITY *  FAIR      41  23  48 CALM      30.46F
WEBSTER CITY * SUNNY     45  27  49 NE7       30.44S
IOWA FALLS *   FAIR      44  29  54 NE7       30.46S
$$

IAZ007>011-017>019-026>030-037>042-050>054-066-200100-
   NORTHEAST IOWA

CITY           SKY/WX    TMP DP  RH WIND       PRES   REMARKS
CEDAR RAPIDS   FAIR      50  24  36 N9        30.43R
6HR MIN TEMP:  49; 6HR MAX TEMP:  54;

CHARLES CITY * FAIR      41  27  56 N5        30.47R
CLINTON *      FAIR      50  28  42 N7        30.43F
DECORAH *      FAIR      43  23  45 NW6       30.44R
DUBUQUE        FAIR      46  28  49 N9        30.43S
6HR MIN TEMP:  44; 6HR MAX TEMP:  49;

MONTICELLO *   FAIR      48  27  43 N7        30.44R
OELWEIN *      FAIR      43  27  52 N8        30.45F
WATERLOO       FAIR      44  23  43 N7        30.45S
6HR MIN TEMP:  41; 6HR MAX TEMP:  48;

$$

IAZ064-065-067-068-078-200100-
   EAST CENTRAL IOWA

CITY           SKY/WX    TMP DP  RH WIND       PRES   REMARKS
DAVENPORT      FAIR      50  25  37 N8        30.44F
6HR MIN TEMP:  48; 6HR MAX TEMP:  54;

IOWA CITY      FAIR      52  24  33 NE9       30.44S
6HR MIN TEMP:  50; 6HR MAX TEMP:  55;

MT. PLEASANT * CLEAR     54  21  28 NE8       30.42S
MUSCATINE *    FAIR      54  23  30 N9        30.43S
QUAD CITIES    FAIR      52  23  32 NE7       30.42S
6HR MIN TEMP:  51; 6HR MAX TEMP:  56;

$$

IAZ062-063-075>077-085>089-095>099-200100-
   SOUTHEAST IOWA

CITY           SKY/WX    TMP DP  RH WIND       PRES   REMARKS
BURLINGTON     CLEAR     53  21  28 N7        30.41S
6HR MIN TEMP:  52; 6HR MAX TEMP:  57;

FAIRFIELD *    CLEAR     52  23  32 NE5       30.41S
FORT MADISON * CLEAR     54  27  35 N6        30.41F
KEOKUK *       CLEAR     54  23  30 VRB6      30.40F
OSKALOOSA *    FAIR      52  22  30 NE8       30.42S
CENTERVILLE *    N/A     54  25  32 CALM      30.42S
OTTUMWA        CLEAR     53  23  31 N6        30.41S
6HR MIN TEMP:  49; 6HR MAX TEMP:  56;

WASHINGTON *   CLEAR     54  23  30 N3        30.43S
$$

ABBREVIATIONS USED IN REMARKS
   TC - TEMPERATURES IN CELSIUS
  WCI - WIND CHILL INDEX
   HX - HEAT INDEX
  VSB - VISIBILITY
$$





USA.gov is the U.S. government's official web portal to all federal, state and local government web resources and services.